TimeEST,TemperatureF,Dew PointF,Humidity,Sea Level PressureIn,VisibilityMPH,Wind Direction,Wind SpeedMPH,Gust SpeedMPH,PrecipitationIn,Events,Conditions,WindDirDegrees,DateUTC
12:32 AM,33.8,30.2,87,29.80,1.5,NW,9.2,-,0.02,Snow,Light Snow,310,2012-12-11 05:32:00
12:51 AM,32.0,30.0,92,29.83,1.8,NW,10.4,-,0.03,Snow,Light Snow,320,2012-12-11 05:51:00
12:59 AM,32.0,30.2,93,29.81,2.5,NW,12.7,-,0.00,Snow,Light Snow,320,2012-12-11 05:59:00
1:01 AM,32.0,30.2,93,29.81,1.8,NW,12.7,-,0.00,Snow,Light Snow,320,2012-12-11 06:01:00
1:15 AM,32.0,30.2,93,29.81,1.8,NW,9.2,-,0.00,Snow,Light Snow,310,2012-12-11 06:15:00
1:51 AM,32.0,30.0,92,29.84,1.8,NW,9.2,-,0.00,Snow,Light Snow,320,2012-12-11 06:51:00
2:51 AM,32.0,28.9,88,29.87,7.0,WNW,5.8,-,0.00,Snow,Light Snow,300,2012-12-11 07:51:00
3:16 AM,32.0,28.4,87,29.85,9.0,WNW,5.8,-,N/A,Snow,Light Snow,300,2012-12-11 08:16:00
3:51 AM,32.0,28.9,88,29.89,9.0,West,3.5,-,0.00,Snow,Light Snow,280,2012-12-11 08:51:00
4:51 AM,32.0,28.9,88,29.91,9.0,WSW,3.5,-,0.00,Snow,Light Snow,250,2012-12-11 09:51:00
5:51 AM,32.0,28.9,88,29.94,9.0,West,3.5,-,0.00,Snow,Light Snow,260,2012-12-11 10:51:00
6:51 AM,32.0,28.9,88,29.96,9.0,SW,4.6,-,0.00,Snow,Light Snow,230,2012-12-11 11:51:00
7:15 AM,32.0,30.2,93,29.93,9.0,WSW,6.9,-,0.00,Snow,Light Snow,240,2012-12-11 12:15:00
7:51 AM,32.0,28.4,87,29.94,9.0,WSW,6.9,-,N/A,Snow,Light Snow,250,2012-12-11 12:51:00
7:58 AM,32.0,28.4,87,29.95,9.0,WSW,6.9,-,0.00,,Overcast,240,2012-12-11 12:58:00
8:51 AM,32.0,28.9,88,30.01,9.0,WSW,8.1,-,0.00,,Overcast,240,2012-12-11 13:51:00
9:51 AM,33.1,28.9,85,30.03,10.0,WSW,8.1,-,N/A,,Overcast,250,2012-12-11 14:51:00
10:08 AM,33.8,28.4,81,30.00,10.0,WSW,8.1,-,N/A,,Overcast,240,2012-12-11 15:08:00
10:51 AM,35.1,28.9,78,30.05,10.0,WSW,11.5,-,N/A,Snow,Light Snow,250,2012-12-11 15:51:00
11:51 AM,35.1,27.0,72,30.05,7.0,West,10.4,-,N/A,Snow,Light Snow,280,2012-12-11 16:51:00
12:38 PM,33.8,28.4,81,30.02,7.0,West,5.8,-,0.00,Snow,Light Snow,260,2012-12-11 17:38:00
12:51 PM,33.8,28.4,81,30.02,9.0,WSW,9.2,-,N/A,Snow,Light Snow,240,2012-12-11 17:51:00
1:39 PM,35.6,28.4,75,30.02,9.0,WSW,9.2,-,0.00,Snow,Light Snow,240,2012-12-11 18:39:00
1:51 PM,34.0,28.9,82,30.06,7.0,SW,8.1,-,0.00,Snow,Light Snow,230,2012-12-11 18:51:00
2:28 PM,35.6,28.4,75,30.03,9.0,SW,8.1,-,0.00,,Overcast,230,2012-12-11 19:28:00
2:51 PM,35.1,27.0,72,30.07,10.0,WSW,6.9,-,0.00,,Overcast,240,2012-12-11 19:51:00
3:51 PM,35.6,23.0,60,30.04,10.0,West,5.8,-,N/A,,Mostly Cloudy,270,2012-12-11 20:51:00
4:51 PM,35.1,24.1,64,30.10,10.0,West,6.9,-,N/A,,Mostly Cloudy,260,2012-12-11 21:51:00
5:51 PM,33.8,24.8,70,30.09,10.0,SW,9.2,-,N/A,,Mostly Cloudy,230,2012-12-11 22:51:00
6:51 PM,32.0,25.0,75,30.14,10.0,SW,3.5,-,N/A,,Scattered Clouds,230,2012-12-11 23:51:00
7:51 PM,32.0,25.0,75,30.16,10.0,SW,3.5,-,N/A,,Mostly Cloudy,220,2012-12-12 00:51:00
8:51 PM,32.0,25.0,75,30.18,10.0,SW,6.9,-,N/A,,Overcast,220,2012-12-12 01:51:00
9:51 PM,30.9,24.1,76,30.19,10.0,WSW,9.2,-,N/A,,Mostly Cloudy,240,2012-12-12 02:51:00
10:51 PM,28.4,21.2,74,30.16,10.0,SW,6.9,-,N/A,,Partly Cloudy,230,2012-12-12 03:51:00
11:51 PM,28.9,21.9,75,30.22,10.0,SW,4.6,-,N/A,,Mostly Cloudy,230,2012-12-12 04:51:00